THY6UV LTFM-LTDB

Flight info

Callsign THY6UV
Flight time 1h 12m
Altitude 37000
Route RATVU1D/35L RATVU UT35 UNEPI UT38 KETEK UR55 MUT UW74 MANAZ
Aircraft A320/M-SDE3FGHIRWY/LB1

Departure

Time 2026-04-16 14:30
Airport İstanbul Airport (LTFM)

Arrival

Time 2026-04-16 15:43
Airport Çukurova International Airport (LTDB)
Time Latitude Longitude Altitude Speed Heading
2026-04-16 14:03 41.26538 28.74140 313 ft 0 kts 90°
2026-04-16 14:14 41.26538 28.74127 313 ft 2 kts 90°
2026-04-16 14:15 41.26537 28.74105 313 ft 2 kts 66°
2026-04-16 14:15 41.26532 28.74085 313 ft 2 kts 84°
2026-04-16 14:15 41.26530 28.74062 313 ft 2 kts 84°
2026-04-16 14:15 41.26527 28.74041 313 ft 2 kts 53°
2026-04-16 14:16 41.26516 28.74026 312 ft 1 kts
2026-04-16 14:16 41.26518 28.74026 312 ft 0 kts
2026-04-16 14:21 41.26525 28.74026 311 ft 3 kts
2026-04-16 14:21 41.26553 28.74027 313 ft 5 kts 356°
2026-04-16 14:21 41.26592 28.74024 313 ft 7 kts 356°
2026-04-16 14:22 41.26652 28.74018 313 ft 10 kts 356°
2026-04-16 14:22 41.26732 28.74016 313 ft 13 kts 359°
2026-04-16 14:22 41.26830 28.74014 313 ft 15 kts 359°
2026-04-16 14:22 41.26930 28.74012 313 ft 15 kts 359°
2026-04-16 14:23 41.27036 28.73986 311 ft 16 kts 311°
2026-04-16 14:23 41.27049 28.73860 310 ft 12 kts 270°
2026-04-16 14:23 41.27049 28.73737 310 ft 14 kts 270°
2026-04-16 14:23 41.27047 28.73593 310 ft 16 kts 264°
2026-04-16 14:24 41.27039 28.73431 311 ft 19 kts 266°
2026-04-16 14:24 41.27044 28.73284 310 ft 16 kts 268°
2026-04-16 14:24 41.27040 28.73126 307 ft 14 kts 268°
2026-04-16 14:24 41.27035 28.73015 306 ft 13 kts 247°
2026-04-16 14:25 41.26957 28.72988 309 ft 13 kts 179°
2026-04-16 14:25 41.26862 28.72989 308 ft 14 kts 179°
2026-04-16 14:25 41.26778 28.72993 309 ft 10 kts 177°
2026-04-16 14:25 41.26725 28.72992 311 ft 7 kts 204°
2026-04-16 14:26 41.26719 28.72988 311 ft 0 kts 205°
2026-04-16 14:27 41.26718 28.72986 311 ft 0 kts 219°
2026-04-16 14:28 41.26716 28.72972 311 ft 3 kts 264°
2026-04-16 14:28 41.26717 28.72931 309 ft 6 kts 272°
2026-04-16 14:28 41.26718 28.72860 309 ft 9 kts 270°
2026-04-16 14:28 41.26715 28.72761 309 ft 11 kts 265°
2026-04-16 14:29 41.26713 28.72652 310 ft 13 kts 270°
2026-04-16 14:29 41.26734 28.72532 309 ft 15 kts 323°
2026-04-16 14:29 41.26891 28.72512 306 ft 47 kts 359°
2026-04-16 14:29 41.27453 28.72499 288 ft 111 kts 359°
2026-04-16 14:30 41.28393 28.72501 279 ft 157 kts
2026-04-16 14:30 41.29493 28.72523 851 ft 158 kts
2026-04-16 14:30 41.30605 28.72503 1596 ft 161 kts
2026-04-16 14:30 41.31745 28.72503 2162 ft 172 kts
2026-04-16 14:31 41.33000 28.72537 2528 ft 192 kts
2026-04-16 14:31 41.34395 28.72595 2913 ft 210 kts
2026-04-16 14:31 41.35940 28.72667 3342 ft 232 kts
2026-04-16 14:31 41.37535 28.72118 4157 ft 249 kts 328°
2026-04-16 14:32 41.38687 28.70322 4784 ft 271 kts 295°
2026-04-16 14:32 41.39047 28.67854 4965 ft 275 kts 272°
2026-04-16 14:32 41.38908 28.65307 5013 ft 276 kts 264°
2026-04-16 14:32 41.38635 28.62777 5015 ft 276 kts 263°
2026-04-16 14:33 41.38338 28.60245 5711 ft 278 kts 257°
2026-04-16 14:33 41.37494 28.57927 6718 ft 281 kts 233°
2026-04-16 14:33 41.36076 28.56146 7663 ft 284 kts 213°
2026-04-16 14:33 41.34235 28.55179 8573 ft 290 kts 192°
2026-04-16 14:34 41.32230 28.55087 9480 ft 293 kts 181°
2026-04-16 14:34 41.30172 28.55127 10258 ft 302 kts 181°
2026-04-16 14:34 41.27996 28.55307 10511 ft 328 kts 175°
2026-04-16 14:34 41.25697 28.56093 10706 ft 355 kts 162°
2026-04-16 14:35 41.23451 28.57607 11221 ft 369 kts 149°
2026-04-16 14:35 41.21455 28.59765 11971 ft 372 kts 139°
2026-04-16 14:35 41.19572 28.62178 12656 ft 376 kts 137°
2026-04-16 14:35 41.17679 28.64591 13416 ft 379 kts 137°
2026-04-16 14:36 41.15797 28.66984 14118 ft 382 kts 137°
2026-04-16 14:36 41.13867 28.69440 14680 ft 387 kts 137°
2026-04-16 14:36 41.12086 28.72143 15235 ft 393 kts 127°
2026-04-16 14:36 41.10573 28.75191 15791 ft 398 kts 124°
2026-04-16 14:37 41.09066 28.78281 16402 ft 400 kts 124°
2026-04-16 14:37 41.07548 28.81383 17020 ft 403 kts 124°
2026-04-16 14:37 41.06005 28.84503 17595 ft 406 kts 127°
2026-04-16 14:37 41.04164 28.87337 18155 ft 407 kts 140°
2026-04-16 14:38 41.01889 28.89568 18678 ft 407 kts 153°
2026-04-16 14:38 40.99300 28.91055 19217 ft 405 kts 166°
2026-04-16 14:38 40.96580 28.91750 19746 ft 404 kts 179°
2026-04-16 14:38 40.93783 28.91686 20297 ft 402 kts 188°
2026-04-16 14:39 40.90989 28.91332 20819 ft 405 kts 188°
2026-04-16 14:39 40.88170 28.90988 21317 ft 409 kts 186°
2026-04-16 14:39 40.85308 28.91042 21798 ft 414 kts 180°
2026-04-16 14:39 40.82419 28.91271 22279 ft 417 kts 180°
2026-04-16 14:40 40.79515 28.91508 22752 ft 420 kts 179°
2026-04-16 14:40 40.76591 28.91747 23212 ft 422 kts 179°
2026-04-16 14:40 40.73649 28.91988 23679 ft 425 kts 179°
2026-04-16 14:40 40.70693 28.92228 24067 ft 427 kts 179°
2026-04-16 14:41 40.67754 28.92466 24438 ft 430 kts 179°
2026-04-16 14:41 40.64756 28.92708 24804 ft 432 kts 179°
2026-04-16 14:41 40.61747 28.92948 25176 ft 435 kts 179°
2026-04-16 14:41 40.58719 28.93250 25544 ft 439 kts 175°
2026-04-16 14:42 40.55723 28.94105 25908 ft 445 kts 165°
2026-04-16 14:42 40.52838 28.95635 26282 ft 450 kts 155°
2026-04-16 14:42 40.50136 28.97773 26641 ft 455 kts 149°
2026-04-16 14:42 40.47477 29.00056 27009 ft 458 kts 149°
2026-04-16 14:43 40.44800 29.02348 27375 ft 461 kts 149°
2026-04-16 14:43 40.42145 29.04616 27734 ft 463 kts 149°
2026-04-16 14:43 40.39439 29.06923 28081 ft 465 kts 149°
2026-04-16 14:43 40.36717 29.09235 28450 ft 467 kts 149°
2026-04-16 14:44 40.33980 29.11555 28815 ft 469 kts 149°
2026-04-16 14:44 40.31231 29.13884 29228 ft 470 kts 149°
2026-04-16 14:44 40.28489 29.16211 29759 ft 469 kts 149°
2026-04-16 14:44 40.25752 29.18533 30266 ft 468 kts 149°
2026-04-16 14:45 40.23021 29.20839 30722 ft 467 kts 149°
2026-04-16 14:45 40.20291 29.23131 31195 ft 465 kts 151°
2026-04-16 14:45 40.17480 29.25055 31650 ft 460 kts 159°
2026-04-16 14:45 40.14497 29.26529 32118 ft 458 kts 163°
2026-04-16 14:46 40.11505 29.27944 32597 ft 456 kts 162°
2026-04-16 14:46 40.08524 29.29357 33068 ft 455 kts 162°
2026-04-16 14:46 40.05555 29.30765 33561 ft 453 kts 163°
2026-04-16 14:46 40.02600 29.32166 34071 ft 451 kts 163°
2026-04-16 14:47 39.99661 29.33563 34490 ft 449 kts 163°
2026-04-16 14:47 39.96729 29.34959 34883 ft 448 kts 163°
2026-04-16 14:47 39.93843 29.36330 35258 ft 447 kts 163°
2026-04-16 14:47 39.90920 29.37713 35632 ft 446 kts 163°
2026-04-16 14:48 39.88018 29.39154 36016 ft 446 kts 161°
2026-04-16 14:48 39.85152 29.40692 36391 ft 446 kts 160°
2026-04-16 14:48 39.82308 29.42291 36741 ft 445 kts 159°
2026-04-16 14:48 39.79471 29.43913 36987 ft 446 kts 159°
2026-04-16 14:49 39.73755 29.47147 37029 ft 449 kts 160°
2026-04-16 14:49 39.68044 29.50292 37017 ft 449 kts 160°
2026-04-16 14:50 39.62290 29.53395 37016 ft 447 kts 161°
2026-04-16 14:50 39.56481 29.56314 37018 ft 448 kts 162°
2026-04-16 14:51 39.50642 29.59156 37013 ft 449 kts 162°
2026-04-16 14:51 39.44836 29.62005 37010 ft 449 kts 162°
2026-04-16 14:53 39.21519 29.73609 37018 ft 450 kts 162°
2026-04-16 14:54 39.15677 29.76488 37021 ft 450 kts 162°
2026-04-16 14:54 39.09831 29.79372 37021 ft 450 kts 162°
2026-04-16 14:55 39.03989 29.82246 37018 ft 450 kts 162°
2026-04-16 14:55 38.98185 29.85097 37006 ft 450 kts 162°
2026-04-16 14:56 38.92337 29.87967 37006 ft 450 kts 162°
2026-04-16 14:56 38.86491 29.90822 37014 ft 450 kts 162°
2026-04-16 14:57 38.80628 29.93611 37012 ft 449 kts 162°
2026-04-16 14:57 38.74798 29.96361 37012 ft 449 kts 162°
2026-04-16 14:58 38.66002 30.00535 37005 ft 449 kts 162°
2026-04-16 14:59 38.60136 30.03311 37006 ft 449 kts 162°
2026-04-16 14:59 38.54275 30.06082 37004 ft 449 kts 162°
2026-04-16 15:00 38.48448 30.08832 37004 ft 449 kts 162°
2026-04-16 15:00 38.42588 30.11585 37005 ft 448 kts 162°
2026-04-16 15:01 38.36729 30.14327 37002 ft 449 kts 162°
2026-04-16 15:01 38.30867 30.17067 37000 ft 449 kts 163°
2026-04-16 15:02 38.25322 30.20779 36994 ft 455 kts 145°
2026-04-16 15:02 38.20993 30.26601 36995 ft 460 kts 128°
2026-04-16 15:03 38.17202 30.33161 36998 ft 460 kts 129°
2026-04-16 15:03 38.13393 30.39702 36998 ft 460 kts 129°
2026-04-16 15:04 38.09586 30.46246 36996 ft 461 kts 129°
2026-04-16 15:04 38.05794 30.52747 36990 ft 462 kts 129°
2026-04-16 15:05 38.01969 30.59295 36993 ft 462 kts 129°
2026-04-16 15:05 37.98133 30.65838 37000 ft 462 kts 129°
2026-04-16 15:06 37.94299 30.72373 36995 ft 462 kts 129°
2026-04-16 15:06 37.90498 30.78873 36990 ft 462 kts 129°
2026-04-16 15:07 37.86674 30.85416 36998 ft 462 kts 129°
2026-04-16 15:07 37.82835 30.91940 37001 ft 462 kts 129°
2026-04-16 15:08 37.78986 30.98453 37003 ft 462 kts 129°
2026-04-16 15:08 37.75139 31.04972 36995 ft 463 kts 129°
2026-04-16 15:09 37.71310 31.11448 37006 ft 463 kts 129°
2026-04-16 15:09 37.67445 31.17968 37009 ft 464 kts 129°
2026-04-16 15:10 37.63578 31.24478 37013 ft 464 kts 129°
2026-04-16 15:10 37.59696 31.30988 37006 ft 464 kts 129°
2026-04-16 15:11 37.55849 31.37453 37004 ft 464 kts 129°
2026-04-16 15:11 37.51962 31.43961 37003 ft 465 kts 129°
2026-04-16 15:12 37.48065 31.50462 37003 ft 465 kts 129°
2026-04-16 15:12 37.44175 31.56963 37001 ft 465 kts 129°
2026-04-16 15:13 37.40294 31.63427 36999 ft 466 kts 129°
2026-04-16 15:13 37.36378 31.69923 37004 ft 466 kts 129°
2026-04-16 15:14 37.32457 31.76419 37006 ft 466 kts 129°
2026-04-16 15:14 37.28520 31.82904 37009 ft 466 kts 129°
2026-04-16 15:15 37.24612 31.89336 37008 ft 467 kts 129°
2026-04-16 15:15 37.20679 31.95810 37009 ft 467 kts 129°
2026-04-16 15:16 37.16738 32.02287 37017 ft 467 kts 130°
2026-04-16 15:16 37.12790 32.08751 37015 ft 467 kts 130°
2026-04-16 15:17 37.08860 32.15171 37002 ft 467 kts 130°
2026-04-16 15:17 37.04897 32.21630 37007 ft 468 kts 130°
2026-04-16 15:18 37.00934 32.28097 37004 ft 469 kts 130°
2026-04-16 15:18 36.96961 32.34567 37019 ft 469 kts 130°
2026-04-16 15:19 36.93008 32.40983 36992 ft 469 kts 130°
2026-04-16 15:19 36.89813 32.48117 36999 ft 475 kts 111°
2026-04-16 15:20 36.88554 32.56208 36989 ft 477 kts 92°
2026-04-16 15:20 36.88328 32.64490 36695 ft 477 kts 92°
2026-04-16 15:20 36.88208 32.68625 36065 ft 477 kts 92°
2026-04-16 15:21 36.88084 32.72707 35466 ft 477 kts 92°
2026-04-16 15:21 36.87958 32.76843 34849 ft 476 kts 92°
2026-04-16 15:21 36.87832 32.80969 34225 ft 476 kts 92°
2026-04-16 15:21 36.87708 32.85101 33545 ft 476 kts 92°
2026-04-16 15:22 36.87586 32.89227 32813 ft 476 kts 92°
2026-04-16 15:22 36.87463 32.93360 32085 ft 476 kts 92°
2026-04-16 15:22 36.87339 32.97495 31327 ft 476 kts 92°
2026-04-16 15:22 36.87214 33.01622 30576 ft 476 kts 92°
2026-04-16 15:23 36.87083 33.05755 29740 ft 476 kts 92°
2026-04-16 15:23 36.86948 33.09887 28792 ft 477 kts 92°
2026-04-16 15:23 36.86812 33.13967 27830 ft 478 kts 92°
2026-04-16 15:23 36.86672 33.18107 27063 ft 475 kts 92°
2026-04-16 15:24 36.86534 33.22198 26369 ft 470 kts 92°
2026-04-16 15:24 36.86399 33.26248 25692 ft 464 kts 92°
2026-04-16 15:24 36.86357 33.30258 25042 ft 459 kts 87°
2026-04-16 15:24 36.86559 33.34216 24404 ft 454 kts 86°
2026-04-16 15:25 36.86759 33.38131 23779 ft 449 kts 86°
2026-04-16 15:25 36.86954 33.41999 23091 ft 445 kts 86°
2026-04-16 15:25 36.87144 33.45832 22386 ft 440 kts 86°
2026-04-16 15:25 36.87329 33.49572 21697 ft 435 kts 86°
2026-04-16 15:26 36.87513 33.53327 21012 ft 431 kts 86°
2026-04-16 15:26 36.87693 33.57045 20334 ft 428 kts 86°
2026-04-16 15:26 36.87872 33.60734 19703 ft 424 kts 86°
2026-04-16 15:26 36.88047 33.64390 19093 ft 420 kts 86°
2026-04-16 15:27 36.88219 33.68009 18547 ft 416 kts 86°
2026-04-16 15:27 36.88388 33.71603 17895 ft 413 kts 87°
2026-04-16 15:27 36.88555 33.75171 17297 ft 409 kts 86°
2026-04-16 15:27 36.88720 33.78693 16724 ft 404 kts 86°
2026-04-16 15:28 36.88881 33.82125 16143 ft 399 kts 86°
2026-04-16 15:28 36.89040 33.85562 15584 ft 394 kts 86°
2026-04-16 15:28 36.89196 33.88956 15029 ft 389 kts 86°
2026-04-16 15:28 36.89350 33.92311 14464 ft 384 kts 85°
2026-04-16 15:29 36.89505 33.95626 13889 ft 380 kts 86°
2026-04-16 15:29 36.89657 33.98903 13240 ft 376 kts 86°
2026-04-16 15:29 36.89805 34.02146 12587 ft 372 kts 86°
2026-04-16 15:29 36.89950 34.05365 11945 ft 369 kts 86°
2026-04-16 15:30 36.90090 34.08506 11341 ft 366 kts 85°
2026-04-16 15:30 36.90226 34.11659 10750 ft 362 kts 86°
2026-04-16 15:30 36.90360 34.14786 10173 ft 358 kts 86°
2026-04-16 15:30 36.90491 34.17847 9956 ft 345 kts 85°
2026-04-16 15:31 36.90615 34.20772 9825 ft 330 kts 86°
2026-04-16 15:31 36.90733 34.23575 9686 ft 316 kts 85°
2026-04-16 15:31 36.90843 34.26259 9538 ft 302 kts 85°
2026-04-16 15:31 36.90950 34.28834 9422 ft 292 kts 85°
2026-04-16 15:32 36.91055 34.31332 9306 ft 286 kts 84°
2026-04-16 15:32 36.91160 34.33776 9163 ft 284 kts 85°
2026-04-16 15:32 36.91264 34.36225 9033 ft 283 kts 85°
2026-04-16 15:32 36.91328 34.38677 8903 ft 283 kts 90°
2026-04-16 15:33 36.91105 34.41122 8776 ft 284 kts 99°
2026-04-16 15:33 36.90563 34.43496 8621 ft 285 kts 108°
2026-04-16 15:33 36.89754 34.45761 8495 ft 285 kts 112°
2026-04-16 15:33 36.88912 34.47998 8364 ft 284 kts 112°
2026-04-16 15:34 36.88075 34.50225 8246 ft 282 kts 112°
2026-04-16 15:34 36.87257 34.52411 8123 ft 281 kts 112°
2026-04-16 15:34 36.86429 34.54622 7973 ft 281 kts 112°
2026-04-16 15:34 36.85603 34.56828 7858 ft 280 kts 112°
2026-04-16 15:35 36.84781 34.59028 7727 ft 279 kts 112°
2026-04-16 15:35 36.83962 34.61224 7604 ft 279 kts 112°
2026-04-16 15:35 36.83144 34.63412 7463 ft 278 kts 112°
2026-04-16 15:35 36.82327 34.65595 7340 ft 277 kts 112°
2026-04-16 15:36 36.81511 34.67773 7221 ft 277 kts 112°
2026-04-16 15:36 36.80702 34.69929 7008 ft 278 kts 112°
2026-04-16 15:36 36.79877 34.72127 6633 ft 279 kts 112°
2026-04-16 15:36 36.79066 34.74285 6482 ft 271 kts 112°
2026-04-16 15:37 36.78542 34.75677 6394 ft 265 kts 112°
2026-04-16 15:37 36.77771 34.77720 6275 ft 256 kts 112°
2026-04-16 15:37 36.77024 34.79695 6162 ft 248 kts 112°
2026-04-16 15:37 36.75939 34.82153 5836 ft 244 kts 118°
2026-04-16 15:38 36.75053 34.83965 5477 ft 246 kts 119°
2026-04-16 15:38 36.74157 34.85785 5139 ft 247 kts 120°
2026-04-16 15:38 36.73259 34.87613 4795 ft 247 kts 118°
2026-04-16 15:38 36.72791 34.88900 4571 ft 247 kts 106°
2026-04-16 15:39 36.72537 34.90997 4240 ft 245 kts 88°
2026-04-16 15:39 36.72833 34.93088 3766 ft 250 kts 70°
2026-04-16 15:39 36.74108 34.95528 3115 ft 260 kts 43°
2026-04-16 15:39 36.75589 34.96827 2759 ft 260 kts 32°
2026-04-16 15:40 36.77134 34.97990 2429 ft 260 kts 32°
2026-04-16 15:40 36.78175 34.98777 2201 ft 259 kts 32°
2026-04-16 15:40 36.79671 34.99912 1863 ft 243 kts 32°
2026-04-16 15:40 36.81043 35.00952 1567 ft 225 kts 31°
2026-04-16 15:41 36.82310 35.01914 1297 ft 201 kts 32°
2026-04-16 15:41 36.83435 35.02769 1049 ft 177 kts 31°
2026-04-16 15:41 36.84396 35.03499 832 ft 150 kts 32°
2026-04-16 15:41 36.85259 35.04155 654 ft 141 kts 32°
2026-04-16 15:42 36.86090 35.04787 457 ft 139 kts 32°
2026-04-16 15:42 36.86919 35.05396 313 ft 139 kts 31°
2026-04-16 15:42 36.87742 35.06021 118 ft 138 kts 34°
2026-04-16 15:42 36.88487 35.06621 49 ft 95 kts 31°
2026-04-16 15:43 36.88905 35.06929 50 ft 48 kts 32°
2026-04-16 15:43 36.89158 35.07126 49 ft 38 kts 32°
2026-04-16 15:43 36.89310 35.07134 47 ft 23 kts 310°
2026-04-16 15:43 36.89401 35.06956 48 ft 25 kts 303°
2026-04-16 15:44 36.89490 35.06777 50 ft 19 kts 302°
2026-04-16 15:44 36.89578 35.06725 50 ft 15 kts 27°
2026-04-16 15:44 36.89687 35.06774 50 ft 18 kts 27°
2026-04-16 15:44 36.89801 35.06864 50 ft 20 kts 31°
2026-04-16 15:45 36.89882 35.06870 50 ft 10 kts 321°
2026-04-16 15:45 36.89909 35.06823 49 ft 1 kts 301°
2026-04-16 15:45 36.89910 35.06821 49 ft 0 kts 301°